FW8702 Weather Reports


time (UTC)temp
C
wind
direction
speed
KPH
gust
KPH
rain 1hr
cm
rain 24hr
cm
rain mn
cm
humidity
%
barometer
mb
20260502123054 22 245 0.0 3.2 0.00 0.00 0.00 46 1024.7
20260502121517 22 177 0.0 1.6 0.00 0.00 0.00 47 1024.9
20260502114542 21 146 0.0 0.0 0.00 0.00 0.00 46 1025.4
20260502113008 21 179 0.0 0.0 0.00 0.00 0.00 45 1025.6
20260502111535 20 246 1.6 8.0 0.00 0.00 0.00 46 1025.8
20260502110057 20 267 0.0 14.5 0.00 0.00 0.00 50 1026.1
20260502104511 20 251 1.6 12.9 0.00 0.00 0.00 48 1026.2
20260502103022 20 239 0.0 11.3 0.00 0.00 0.00 50 1026.6
20260502101534 20 246 1.6 8.0 0.00 0.00 0.00 51 1026.8
20260502091509 18 235 0.0 6.4 0.00 0.00 0.00 63 1027.8
20260502070114 15 346 0.0 0.0 0.00 0.00 0.00 74 1028.5
20260502064526 13 317 0.0 0.0 0.00 0.00 0.00 77 1028.5
20260502063056 13 8 0.0 1.6 0.00 0.00 0.00 77 1028.6
20260502061517 12 307 0.0 1.6 0.00 0.00 0.00 81 1028.5
20260502060018 12 226 0.0 0.0 0.00 0.00 0.00 83 1028.7
20260502054536 11 216 0.0 0.0 0.00 0.00 0.00 83 1028.8
20260502053048 11 216 0.0 0.0 0.00 0.00 0.00 81 1028.5
20260502051509 10 216 0.0 0.0 0.00 0.00 0.00 84 1028.5
20260502050034 8 216 0.0 0.0 0.00 0.00 0.00 88 1028.6
20260502044552 7 216 0.0 0.0 0.00 0.00 0.00 89 1028.6
20260502043101 7 216 0.0 0.0 0.00 0.00 0.00 89 1028.6
20260502041509 7 216 0.0 0.0 0.00 0.00 0.00 89 1028.5
20260502040026 7 216 0.0 0.0 0.00 0.00 0.00 89 1028.3
20260502034554 7 216 0.0 0.0 0.00 0.00 0.00 88 1028.3
20260502033018 8 216 0.0 0.0 0.00 0.00 0.00 87 1028.3
20260502031550 8 216 0.0 0.0 0.00 0.00 0.00 86 1028.2
20260502030105 8 216 0.0 0.0 0.00 0.00 0.00 84 1028.3
20260502024527 8 216 0.0 0.0 0.00 0.00 0.00 84 1028.2
20260502023026 8 216 0.0 0.0 0.00 0.00 0.00 85 1028.2
20260502021554 8 216 0.0 0.0 0.00 0.00 0.00 87 1028.2
20260502020002 8 216 0.0 0.0 0.00 0.00 0.00 89 1028.0
20260502014535 7 216 0.0 0.0 0.00 0.00 0.00 88 1027.9
20260502013108 7 216 0.0 0.0 0.00 0.00 0.00 87 1027.9
20260502011522 8 216 0.0 0.0 0.00 0.00 0.00 86 1028.0
20260502010104 8 216 0.0 0.0 0.00 0.00 0.00 85 1028.1
20260502004602 8 216 0.0 0.0 0.00 0.00 0.00 85 1028.1
20260502003028 8 216 0.0 0.0 0.00 0.00 0.00 86 1028.0
20260502001548 8 216 0.0 0.0 0.00 0.00 0.00 85 1028.0
20260502000120 8 216 0.0 0.0 0.00 0.00 0.00 85 1028.2
20260501234521 8 216 0.0 0.0 0.00 0.00 0.00 85 1028.0
20260501233034 8 216 0.0 0.0 0.00 0.00 0.00 85 1028.1
20260501231608 9 216 0.0 0.0 0.00 0.00 0.00 84 1028.0
20260501230101 9 216 0.0 0.0 0.00 0.00 0.00 84 1027.9
20260501224531 9 216 0.0 0.0 0.00 0.00 0.00 83 1027.9
20260501223036 9 216 0.0 0.0 0.00 0.00 0.00 82 1028.0
20260501221503 10 216 0.0 0.0 0.00 0.00 0.00 81 1027.9
20260501214515 10 216 0.0 0.0 0.00 0.00 0.00 81 1027.6
20260501213045 10 216 0.0 0.0 0.00 0.00 0.00 80 1027.7
20260501211605 11 216 0.0 0.0 0.00 0.00 0.00 79 1027.6
20260501210004 11 216 0.0 0.0 0.00 0.00 0.00 78 1027.5
20260501204531 11 216 0.0 0.0 0.00 0.00 0.00 77 1027.5
20260501203043 12 216 0.0 0.0 0.00 0.00 0.00 76 1027.3
20260501201514 12 216 0.0 0.0 0.00 0.00 0.00 75 1027.1
20260501200013 13 216 0.0 0.0 0.00 0.00 0.00 73 1027.1
20260501194552 13 216 0.0 0.0 0.00 0.00 0.00 70 1027.0
20260501193002 14 216 0.0 0.0 0.00 0.00 0.00 67 1026.9
20260501191513 15 216 0.0 0.0 0.00 0.00 0.00 64 1026.7
20260501190016 16 216 0.0 0.0 0.00 0.00 0.00 63 1026.7
20260501184540 17 217 0.0 0.0 0.00 0.00 0.00 58 1026.4
20260501183049 18 217 0.0 0.0 0.00 0.00 0.00 53 1026.3
20260501181511 18 217 0.0 0.0 0.00 0.00 0.00 51 1026.1
20260501180056 19 233 0.0 0.0 0.00 0.00 0.00 50 1026.1
20260501174520 19 225 0.0 1.6 0.00 0.00 0.00 48 1026.0
20260501173111 20 227 0.0 6.4 0.00 0.00 0.00 49 1025.8
20260501171557 20 233 0.0 8.0 0.00 0.00 0.00 46 1025.8
20260501170007 20 215 0.0 3.2 0.00 0.00 0.00 46 1025.9
20260501164519 20 229 0.0 6.4 0.00 0.00 0.00 45 1026.1
20260501163051 21 244 0.0 11.3 0.00 0.00 0.00 44 1026.0
20260501161513 21 246 0.0 3.2 0.00 0.00 0.00 43 1026.2
20260501160151 21 237 0.0 4.8 0.00 0.00 0.00 42 1026.2
20260501154533 21 231 0.0 0.0 0.00 0.00 0.00 42 1026.3
20260501153105 21 250 0.0 3.2 0.00 0.00 0.00 41 1026.6
20260501151522 21 206 0.0 1.6 0.00 0.00 0.00 43 1026.8
20260501144508 20 235 0.0 1.6 0.00 0.00 0.00 41 1027.0
20260501143032 20 256 0.0 11.3 0.00 0.00 0.00 44 1027.1
20260501141558 21 242 0.0 1.6 0.00 0.00 0.00 40 1027.3
20260501140058 20 186 0.0 6.4 0.00 0.00 0.00 48 1027.4